Regional Weather Roundup
Issued by NWS Green Bay, WI

Home | Current Version | Previous Version | Graphics & Text | Print | Product List | Glossary Off
Versions: 1 2 3 4 5 6 7 8 9 10 11 12 13 14 15 16 17 18 19 20 21 22 23 24 25 26 27 28 29 30 31 32 33 34 35 36 37 38 39 40 41 42 43 44 45 46 47 48 49 50

000
ASUS43 KGRB 251911
RWRGRB

NORTH-CENTRAL AND NORTHEAST WISCONSIN REGIONAL WEATHER ROUNDUP
NATIONAL WEATHER SERVICE GREEN BAY WI
200 PM CDT SAT MAR 25 2017

WIZ005-009-010>012-018-019-252000-
NORTH CENTRAL WISCONSIN

CITY           SKY/WX    TMP DP  RH WIND       PRES   REMARKS
IRONWOOD       CLOUDY    37  29  72 E10       30.23F
MANITOWISH WTR CLOUDY    35  32  88 E7G17     30.21F
ARBOR VITAE    CLOUDY    37  31  79 E9        30.19F
EAGLE RIVER    CLOUDY    36  29  74 SE10G18   30.21F
LAND O LAKES   CLOUDY    36  31  82 SE10G17   30.23F
RHINELANDER    CLOUDY    37  31  78 E16       30.20F
PHILLIPS       CLOUDY    37  31  81 E8        30.18F
ANTIGO         CLOUDY    36  32  84 E17G25    30.18F
TOMAHAWK       CLOUDY    37  30  77 E7        30.19F
MERRILL        CLOUDY    38  32  80 E13       30.18F
$$

WIZ013-073-252000-
NORTHEAST WISCONSIN

CITY           SKY/WX    TMP DP  RH WIND       PRES   REMARKS
IRON MOUNTAIN  CLOUDY    39  28  64 SE13G21   30.24F
MARINETTE        N/A    N/A N/A N/A MISG        N/A
OCONTO         CLOUDY    36  32  85 NE12G18   30.22F
$$

WIZ017-030-035>037-045-252000-
CENTRAL WISCONSIN

CITY           SKY/WX    TMP DP  RH WIND       PRES   REMARKS
MEDFORD        CLOUDY    37  32  84 E16       30.15F
WAUSAU         CLOUDY    39  32  76 E12       30.14F
MOSINEE        CLOUDY    37  34  87 E15G25    30.16F
MARSHFIELD     CLOUDY    38  32  79 E22G28    30.12F
WISC RAPIDS    CLOUDY    39  34  82 E16G29    30.14F
STEVENS POINT  CLOUDY    37  32  84 NE18G26   30.14F
WAUPACA        CLOUDY    40  34  80 NE8G18    30.17F
SHAWANO        CLOUDY    38  33  80 NE14G22   30.20F
CLINTONVILLE   CLOUDY    37  32  81 NE13G21   30.18F
WAUTOMA        CLOUDY    37  34  89 NE17G25   30.13
$$

WIZ038-039-048-051-252000-
FOX VALLEY

CITY           SKY/WX    TMP DP  RH WIND       PRES   REMARKS
NWS GREEN BAY  CLOUDY    37  36  96 NE18      30.19F
APPLETON       CLOUDY    37  34  87 NE17G25   30.14F
OSHKOSH        CLOUDY    37  34  89 NE14      30.14F
FOND DU LAC    CLOUDY    39  33  79 E16G26    30.13F
$$

WIZ022-050-052-252000-
EAST CENTRAL WISCONSIN

CITY           SKY/WX    TMP DP  RH WIND       PRES   REMARKS
EPHRAIM        CLOUDY    35  32  89 NE13G24   30.24F
WASHINGTON ISL CLOUDY    35  30  80 E15G24    30.27F
STURGEON BAY   CLOUDY    37  32  82 NE10G25   30.23F
MANITOWOC      CLOUDY    38  34  85 NE10G20   30.18F
SHEBOYGAN      CLOUDY    37  34  89 NE20      30.15F
$$

LMZ563-521-522-541>543-252000-
LAKESHORE

STATION/POSITION TIME  TEMP    WIND        PRES    VSBY  WAVE
                       AIR SEA DIR/SP/G                  HT/PER
                 (UTC) (F)     (DEG/KT/KT) (MB)    (MI)  (FT/S)
SHEBOYGAN LKSHOR 1900   37      30/ 19/ 21 1021.5F
KEWAUNEE LKSHORE 1842   36      50/ 14/ 20 1022.3F
NORTHPORT PIER   1840   34      60/ 17/ 21 1025.1F
SISTER BAY LKSHO 1835   38      90/ 13/ 21   N/A
CHAMBERS ISLAND  1840   34      40/ 15/ 21 1024.7F
MENOMINEE LKSHOR 1842   33      40/ 20/ 22 1023.7F
$$



USA.gov is the U.S. government's official web portal to all federal, state and local government web resources and services.